Philip, SD

6:42 AM MST on December 05, 2016 (GMT -0700)
Philip

Weather History for KPHP - April, 2013

Change the Weather History Date:

Thursday, April 11, 2013

  Actual Average Record
Temperature  
Mean Temperature 29 °F 45 °F  
Max Temperature 34 °F 59 °F 85 °F (1968)
Min Temperature 23 °F 31 °F 7 °F (1990)
Degree Days  
Heating Degree Days 36 20  
Month to date heating degree days 302 244  
Since 1 July heating degree days 6283 6547  
Cooling Degree Days 0 0  
Month to date cooling degree days 0 0  
Year to date cooling degree days 0 0  
Moisture  
Dew Point 24 °F    
Average Humidity 84    
Maximum Humidity 92    
Minimum Humidity 75    
Precipitation  
Precipitation 0.01 in 0.05 in 1.10 in (1974)
Month to date precipitation 0.96 0.43  
Year to date precipitation 2.18 2.48  
Sea Level Pressure  
Sea Level Pressure 29.87 in    
Wind  
Wind Speed 10 mph (North)    
Max Wind Speed 18 mph    
Max Gust Speed 21 mph    
Visibility 8 miles    
Events Snow    
T = Trace of Precipitation, MM = Missing Value Source: NWS Daily Summary

Daily Weather History Graph

Daily Weather History Graph

Search for Another Location

Airport or City:

Trip Planner

Search our weather history database for the weather conditions in past years. The results will help you decide how hot, cold, wet, or windy it might be!

Date:

Astronomy

Apr. 11, 2013 Rise Set
Actual Time 6:09 AM MDT 7:25 PM MDT
Civil Twilight 5:39 AM MDT 7:55 PM MDT
Nautical Twilight 5:03 AM MDT 8:31 PM MDT
Astronomical Twilight 4:26 AM MDT 9:09 PM MDT
Moon 6:39 AM MDT (4/11) 9:06 PM MDT (4/11)
Length of Visible Light 14h 16m
Length of Day
13h 16m
New Moon, 2% of the Moon is Illuminated
Apr 11
New Moon
Apr 18
First Quarter
Apr 25
Full
May 2
Last Quarter
May 9
New

Hourly Weather History & Observations

Time (MDT) Temp. Windchill Dew Point Humidity Pressure Visibility Wind Dir Wind Speed Gust Speed Precip Events Conditions
12:55 AM 26.1 °F 20.5 °F 23.0 °F 88% 30.01 in 2.5 mi NNE 4.6 mph - 0.00 in Snow Light Snow
1:07 AM 24.8 °F 20.5 °F 23.0 °F 93% 29.94 in 3.0 mi NNE 3.5 mph - 0.00 in Snow Light Snow
1:16 AM 24.8 °F - 23.0 °F 93% 29.93 in 3.0 mi Calm Calm - 0.01 in Snow Light Snow
1:36 AM 24.8 °F 17.9 °F 21.2 °F 86% 29.92 in 9.0 mi NNE 5.8 mph - 0.01 in   Overcast
1:55 AM 25.0 °F 17.1 °F 21.9 °F 88% 29.97 in 9.0 mi NNE 6.9 mph - 0.01 in   Overcast
2:28 AM 24.8 °F 16.9 °F 21.2 °F 86% 29.87 in 10.0 mi North 6.9 mph - N/A   Overcast
2:55 AM 24.1 °F 14.4 °F 21.0 °F 88% 29.94 in 10.0 mi North 9.2 mph - N/A   Overcast
3:55 AM 24.1 °F 13.7 °F 19.9 °F 84% 29.92 in 4.0 mi North 10.4 mph - 0.00 in Snow Light Snow
4:10 AM 24.8 °F 14.0 °F 19.4 °F 80% 29.84 in 10.0 mi North 11.5 mph - 0.00 in   Overcast
4:55 AM 23.0 °F 12.4 °F 19.0 °F 85% 29.88 in 10.0 mi NNW 10.4 mph - 0.00 in   Overcast
5:55 AM 23.0 °F 11.1 °F 19.0 °F 85% 29.87 in 10.0 mi North 12.7 mph - N/A   Overcast
6:32 AM 24.8 °F 12.9 °F 21.2 °F 86% 29.81 in 10.0 mi North 13.8 mph - N/A   Overcast
6:55 AM 24.1 °F 12.0 °F 21.0 °F 88% 29.88 in 8.0 mi North 13.8 mph - N/A   Overcast
7:55 AM 25.0 °F 11.7 °F 21.0 °F 85% 29.88 in 10.0 mi North 17.3 mph - 0.00 in   Overcast
8:55 AM 26.1 °F 14.0 °F 21.0 °F 81% 29.88 in 10.0 mi NNW 15.0 mph - N/A   Overcast
9:55 AM 26.1 °F 14.5 °F 21.0 °F 81% 29.88 in 10.0 mi NW 13.8 mph - N/A   Overcast
10:55 AM 27.0 °F 15.2 °F 21.9 °F 81% 29.88 in 10.0 mi NNW 15.0 mph - N/A   Overcast
11:55 AM 30.0 °F 18.7 °F 24.1 °F 79% 29.85 in 10.0 mi NNW 16.1 mph - N/A   Overcast
12:04 PM 30.2 °F 19.8 °F 24.8 °F 80% 29.79 in 9.0 mi NNW 13.8 mph - 0.00 in Snow Light Snow
12:55 PM 30.9 °F 20.7 °F 25.0 °F 79% 29.85 in 2.5 mi NNW 13.8 mph - 0.00 in Snow Light Snow
1:14 PM 30.2 °F 19.8 °F 26.6 °F 86% 29.79 in 3.0 mi NNW 13.8 mph - 0.00 in Snow Light Snow
1:25 PM 30.2 °F 19.8 °F 26.6 °F 86% 29.78 in 3.0 mi NNW 13.8 mph - 0.00 in Snow Light Snow
1:55 PM 32.0 °F 22.1 °F 26.1 °F 79% 29.84 in 8.0 mi North 13.8 mph - 0.00 in Snow Light Snow
2:55 PM 32.0 °F 21.2 °F 26.1 °F 79% 29.85 in 10.0 mi NNW 16.1 mph - 0.00 in   Overcast
3:07 PM 33.8 °F 24.3 °F 26.6 °F 75% 29.78 in 10.0 mi NNW 13.8 mph - N/A   Overcast
3:28 PM 33.8 °F 24.3 °F 26.6 °F 75% 29.78 in 10.0 mi NNW 13.8 mph - N/A   Overcast
3:55 PM 33.1 °F 24.4 °F 26.1 °F 75% 29.84 in 10.0 mi NNW 11.5 mph - N/A   Overcast
4:42 PM 33.8 °F 24.3 °F 26.6 °F 75% 29.79 in 10.0 mi North 13.8 mph - N/A   Overcast
4:55 PM 33.1 °F 23.9 °F 27.0 °F 78% 29.85 in 10.0 mi North 12.7 mph - N/A   Overcast
5:55 PM 32.0 °F 25.6 °F 27.0 °F 82% 29.88 in 10.0 mi NNW 6.9 mph - N/A   Overcast
6:55 PM 32.0 °F 27.5 °F 27.0 °F 82% 29.88 in 10.0 mi North 4.6 mph - N/A   Overcast
7:02 PM 32.0 °F 28.7 °F 26.6 °F 80% 29.82 in 10.0 mi NNE 3.5 mph - N/A   Overcast
7:33 PM 28.4 °F 21.2 °F 26.6 °F 93% 29.83 in 6.0 mi ENE 6.9 mph - 0.00 in Snow Light Snow
7:55 PM 28.9 °F 23.9 °F 27.0 °F 92% 29.90 in 9.0 mi ENE 4.6 mph - 0.00 in   Overcast
8:55 PM 28.9 °F - 27.0 °F 92% 29.92 in 10.0 mi Calm Calm - 0.00 in   Overcast
9:55 PM 28.9 °F - 27.0 °F 92% 29.93 in 10.0 mi Calm Calm - 0.00 in   Overcast
10:11 PM 28.4 °F - 26.6 °F 93% 29.86 in 10.0 mi Calm Calm - N/A   Overcast
10:55 PM 28.9 °F 25.2 °F 27.0 °F 92% 29.93 in 10.0 mi WNW 3.5 mph - N/A   Overcast
11:55 PM 30.0 °F 25.2 °F 27.0 °F 88% 29.92 in 10.0 mi WNW 4.6 mph - N/A   Overcast